TimeEET,TemperatureF,Dew PointF,Humidity,Sea Level PressureIn,VisibilityMPH,Wind Direction,Wind SpeedMPH,Gust SpeedMPH,PrecipitationIn,Events,Conditions,WindDirDegrees,DateUTC
5:20 AM,48.2,39.2,71,30.21,6.2,NE,4.6,-,N/A,,Mostly Cloudy,50,2012-11-24 03:20:00
5:50 AM,48.2,39.2,71,30.21,6.2,NE,4.6,-,N/A,,Mostly Cloudy,50,2012-11-24 03:50:00
6:20 AM,48.2,39.2,71,30.21,6.2,NE,4.6,-,N/A,,Mostly Cloudy,50,2012-11-24 04:20:00
6:50 AM,48.2,39.2,71,30.21,6.2,NE,4.6,-,N/A,,Mostly Cloudy,50,2012-11-24 04:50:00
7:20 AM,48.2,39.2,71,30.21,6.2,ENE,4.6,-,N/A,,Mostly Cloudy,60,2012-11-24 05:20:00
7:50 AM,48.2,39.2,71,30.21,6.2,ENE,4.6,-,N/A,,Mostly Cloudy,60,2012-11-24 05:50:00
8:20 AM,48.2,39.2,71,30.21,6.2,ENE,5.8,-,N/A,,Mostly Cloudy,60,2012-11-24 06:20:00
8:50 AM,48.2,39.2,71,30.24,6.2,ENE,9.2,-,N/A,,Mostly Cloudy,70,2012-11-24 06:50:00
9:20 AM,48.2,39.2,71,30.24,6.2,ENE,9.2,-,N/A,,Mostly Cloudy,70,2012-11-24 07:20:00
9:50 AM,50.0,41.0,71,30.21,6.2,East,9.2,-,N/A,,Mostly Cloudy,80,2012-11-24 07:50:00
10:20 AM,50.0,41.0,71,30.21,6.2,East,9.2,-,N/A,,Mostly Cloudy,80,2012-11-24 08:20:00
10:50 AM,51.8,41.0,67,30.24,6.2,ENE,9.2,-,N/A,,Mostly Cloudy,70,2012-11-24 08:50:00
11:20 AM,51.8,41.0,67,30.24,6.2,East,8.1,-,N/A,,Mostly Cloudy,80,2012-11-24 09:20:00
11:50 AM,51.8,41.0,67,30.24,6.2,East,6.9,-,N/A,,Mostly Cloudy,80,2012-11-24 09:50:00
12:20 PM,53.6,41.0,62,30.24,6.2,East,8.1,-,N/A,,Mostly Cloudy,80,2012-11-24 10:20:00
12:50 PM,53.6,41.0,62,30.21,6.2,East,5.8,-,N/A,,Mostly Cloudy,90,2012-11-24 10:50:00
1:20 PM,55.4,41.0,58,30.21,6.2,East,8.1,-,N/A,,Scattered Clouds,90,2012-11-24 11:20:00
1:50 PM,55.4,39.2,54,30.21,6.2,ESE,6.9,-,N/A,,Partly Cloudy,120,2012-11-24 11:50:00
2:50 PM,57.2,41.0,55,30.21,6.2,ESE,8.1,-,N/A,,Partly Cloudy,120,2012-11-24 12:50:00
3:20 PM,57.2,41.0,55,30.21,6.2,East,8.1,-,N/A,,Partly Cloudy,90,2012-11-24 13:20:00
3:50 PM,55.4,41.0,58,30.21,6.2,East,5.8,-,N/A,,Partly Cloudy,90,2012-11-24 13:50:00
4:20 PM,53.6,42.8,67,30.21,6.2,Calm,Calm,-,N/A,,Partly Cloudy,0,2012-11-24 14:20:00
4:50 PM,51.8,41.0,67,30.21,6.2,Calm,Calm,-,N/A,,Partly Cloudy,0,2012-11-24 14:50:00
5:20 PM,51.8,41.0,67,30.21,6.2,Calm,Calm,-,N/A,,Partly Cloudy,0,2012-11-24 15:20:00
5:50 PM,50.0,41.0,71,30.21,6.2,Calm,Calm,-,N/A,,Partly Cloudy,0,2012-11-24 15:50:00
6:20 PM,50.0,41.0,71,30.21,6.2,Calm,Calm,-,N/A,,Partly Cloudy,0,2012-11-24 16:20:00
6:50 PM,50.0,41.0,71,30.21,6.2,Calm,Calm,-,N/A,,Partly Cloudy,0,2012-11-24 16:50:00
7:20 PM,50.0,41.0,71,30.21,6.2,Calm,Calm,-,N/A,,Partly Cloudy,0,2012-11-24 17:20:00
7:50 PM,44.6,39.2,81,30.21,-9999.0,Calm,Calm,-,N/A,,Clear,0,2012-11-24 17:50:00